📊 Raw Sensor Data
Showing records 46126 to 46150 of 85,065 total
| ID | Distance (ft) | Battery V | Battery A | Int Temp (°F) | Int Humid (%) | Ext Temp (°F) | Solar V | RSSI | SNR | Time Stamp |
|---|---|---|---|---|---|---|---|---|---|---|
| 38952 | 15.1 | 4.02 | -5 | 48 | 42 | 49 | 0.00 | -76 | 8 | 04/26/2025 11:15 PM |
| 38951 | 15.1 | 3.96 | -5 | 48 | 42 | 49 | 0.10 | -76 | 8 | 04/26/2025 11:00 PM |
| 38950 | 15.1 | 3.96 | -5 | 48 | 42 | 49 | 0.00 | -76 | 8 | 04/26/2025 10:45 PM |
| 38949 | -- | 3.96 | -5 | 48 | 42 | 49 | 0.10 | -75 | 8 | 04/26/2025 10:15 PM |
| 38948 | -- | 4.02 | -5 | 48 | 43 | 49 | 0.00 | -75 | 8 | 04/26/2025 10:00 PM |
| 38947 | -- | 3.96 | -5 | 48 | 43 | 50 | 0.00 | -74 | 8 | 04/26/2025 09:45 PM |
| 38946 | -- | 3.96 | -5 | 49 | 43 | 49 | 0.10 | -75 | 9 | 04/26/2025 09:31 PM |
| 38945 | -- | 3.96 | -5 | 50 | 43 | 50 | 0.00 | -74 | 8 | 04/26/2025 09:15 PM |
| 38944 | -- | 3.96 | -5 | 51 | 43 | 52 | 0.00 | -75 | 8 | 04/26/2025 09:00 PM |
| 38943 | -- | 3.96 | -5 | 52 | 43 | 53 | 0.10 | -75 | 8 | 04/26/2025 08:45 PM |
| 38942 | -- | 4.03 | -5 | 52 | 44 | 52 | 0.00 | -74 | 8 | 04/26/2025 08:31 PM |
| 38941 | -- | 3.97 | -5 | 53 | 44 | 53 | 0.00 | -73 | 8 | 04/26/2025 08:15 PM |
| 38940 | -- | 3.97 | -5 | 54 | 43 | 54 | 0.90 | -76 | 8 | 04/26/2025 08:00 PM |
| 38939 | -- | 4.02 | -10 | 55 | 43 | 55 | 3.30 | -73 | 8 | 04/26/2025 07:45 PM |
| 38938 | -- | 4.05 | 0 | 57 | 43 | 56 | 4.50 | -73 | 9 | 04/26/2025 07:15 PM |
| 38937 | -- | 4.05 | 0 | 58 | 43 | 57 | 4.50 | -74 | 9 | 04/26/2025 07:00 PM |
| 38936 | -- | 4.09 | 0 | 58 | 43 | 58 | 4.50 | -74 | 9 | 04/26/2025 06:45 PM |
| 38935 | -- | 4.07 | 33 | 59 | 43 | 58 | 4.50 | -74 | 7 | 04/26/2025 06:30 PM |
| 38934 | -- | 4.11 | 9 | 59 | 44 | 58 | 4.50 | -73 | 8 | 04/26/2025 06:15 PM |
| 38933 | -- | 4.03 | 13 | 60 | 43 | 58 | 4.50 | -74 | 8 | 04/26/2025 06:00 PM |
| 38932 | -- | 4.02 | 0 | 62 | 42 | 60 | 5.10 | -75 | 8 | 04/26/2025 05:45 PM |
| 38931 | -- | 4.02 | 0 | 60 | 43 | 59 | 5.10 | -73 | 9 | 04/26/2025 05:30 PM |
| 38930 | -- | 4.07 | 30 | 60 | 44 | 58 | 4.50 | -74 | 8 | 04/26/2025 05:16 PM |
| 38929 | -- | 4.09 | 52 | 60 | 44 | 58 | 4.50 | -75 | 8 | 04/26/2025 05:00 PM |
| 38928 | -- | 4.00 | 0 | 61 | 44 | 58 | 5.10 | -75 | 8 | 04/26/2025 04:46 PM |